Location: Arcones
(41.1182°N, 3.7238°W)
Time: 00:23:37
(UTC+00:00)

Cosmos 2263 Rocket - Pass Details

Date: 20 March 2026
Orbit: 823 x 847 km, 71.0° (Epoch: 13 April)

Event Time Altitude Azimuth Distance (km) Brightness Sun altitude
Rises 22:22:30 0° 334° (NNW) 3,391 6.2 -40.6°
Reaches altitude 10° 22:24:57 10° 333° (NNW) 2,450 5.2 -40.9°
Enters shadow 22:26:37 20° 331° (NNW) 1,831 4.4 -41.1°
